Location: Saluda
(35.2377°N, 82.3468°W)
Time: 14:09:31
(UTC+00:00)

SR - Pass Details

Date: 14 October 2022
Orbit: 577 x 875 km, 66.7° (Epoch: 28 November)

Event Time Altitude Azimuth Distance (km) Brightness Sun altitude
Rises 00:50:36 0° 252° (WSW) 3,447 ? -24.0°
Reaches altitude 10° 00:54:01 10° 272° (W) 2,523 ? -24.7°
Maximum altitude 00:57:43 17° 312° (NW) 2,070 ? -25.5°
Drops below altitude 10° 01:01:25 10° 351° (N) 2,507 ? -26.2°
Sets 01:04:50 0° 12° (NNE) 3,416 ? -26.9°
